EW9824 Weather Reports


Display with metric or nautical units.
time (UTC)temp
F
wind
direction
speed
MPH
gust
MPH
rain 1hr
in
rain 24hr
in
rain mn
in
humidity
%
barometer
mb
20260504013031 81 309 3.0 5.0 0.00 0.00 0.00 28 1012.4
20260504011532 82 309 3.0 7.0 0.00 0.00 0.00 26 1012.6
20260504010030 83 321 3.0 6.0 0.00 0.00 0.00 24 1012.7
20260504004530 84 13 4.0 9.0 0.00 0.00 0.00 23 1012.8
20260504003031 86 12 3.0 10.0 0.00 0.00 0.00 23 1013.0
20260504001645 86 108 1.0 8.0 0.00 0.00 0.00 23 1013.1
20260504000031 85 47 3.0 10.0 0.00 0.00 0.00 23 1013.2
20260503234529 84 24 5.0 10.0 0.00 0.00 0.00 23 1013.3
20260503233032 86 58 6.0 12.0 0.00 0.00 0.00 23 1013.4
20260503231531 85 86 6.0 12.0 0.00 0.00 0.00 24 1013.6
20260503230106 85 58 4.0 11.0 0.00 0.00 0.00 25 1013.9
20260503224608 84 50 5.0 13.0 0.00 0.00 0.00 26 1014.1
20260503223109 84 47 6.0 14.0 0.00 0.00 0.00 27 1014.3
20260503221532 84 35 6.0 14.0 0.00 0.00 0.00 26 1014.5
20260503220027 84 60 6.0 15.0 0.00 0.00 0.00 27 1014.7
20260503213030 84 73 7.0 15.0 0.00 0.00 0.00 27 1015.0
20260503211644 84 78 7.0 17.0 0.00 0.00 0.00 27 1015.2
20260503204550 0 0 0.0 0.0 0.00 0.00 0.00 100
20260503203031 84 102 4.0 12.0 0.00 0.00 0.00 26 1015.8
20260503201543 83 68 7.0 17.0 0.00 0.00 0.00 28 1015.9
20260503200033 83 71 7.0 15.0 0.00 0.00 0.00 28 1016.1
20260503194529 82 89 5.0 14.0 0.00 0.00 0.00 28 1016.3
20260503193041 81 69 8.0 21.0 0.00 0.00 0.00 29 1016.4
20260503191529 82 103 7.0 17.0 0.00 0.00 0.00 29 1016.5
20260503190029 81 120 7.0 15.0 0.00 0.01 0.00 30 1016.6
20260503184529 78 77 6.0 15.0 0.00 0.01 0.00 37 1016.8
20260503181530 76 350 4.0 8.0 0.00 0.01 0.00 42 1016.9
20260503180032 75 310 3.0 10.0 0.00 0.01 0.00 45 1017.1
20260503174530 74 353 3.0 7.0 0.00 0.01 0.00 47 1017.2
20260503173031 72 325 2.0 5.0 0.00 0.01 0.00 50 1017.4
20260503171530 70 303 2.0 7.0 0.00 0.01 0.00 51 1017.4
20260503170104 69 308 2.0 6.0 0.00 0.01 0.00 53 1017.5
20260503140109 46 180 1.0 3.0 0.00 0.01 0.00 87 1017.4
20260503081535 50 144 3.0 6.0 0.00 0.01 0.00 82 1017.5
20260503071531 53 173 2.0 6.0 0.00 0.01 0.00 77 1017.6
20260503054532 57 178 2.0 4.0 0.00 0.01 0.01 73 1017.4
20260503053032 56 147 3.0 5.0 0.00 0.01 0.01 74 1017.4
20260503050030 58 148 0.0 3.0 0.00 0.01 0.01 70 1017.3
20260503044543 60 157 0.0 2.0 0.00 0.01 0.01 65 1017.3
20260503041531 63 150 3.0 6.0 0.00 0.01 0.01 60 1017.0
20260503040040 65 163 3.0 6.0 0.00 0.01 0.01 58 1016.8
20260503031529 67 168 3.0 7.0 0.00 0.01 0.01 58 1016.2
20260503024529 68 160 2.0 5.0 0.00 0.01 0.01 61 1015.7
20260503023032 70 150 2.0 3.0 0.00 0.01 0.01 56 1015.6
20260503021528 72 135 2.0 4.0 0.00 0.01 0.01 51 1015.5